Location: Drocourt
(49.0571°N, 1.7669°E)
Time: 16:25:08
(UTC+00:00)

SR - Pass Details

Date: 27 April 2024
Orbit: 579 x 860 km, 66.7° (Epoch: 22 May)

Event Time Altitude Azimuth Distance (km) Brightness Sun altitude
Exits shadow 02:14:27 11° 281° (W) 2,241 ? -19.4°
Maximum altitude 02:18:07 20° 327° (NNW) 1,633 ? -19.1°
Drops below altitude 10° 02:21:45 10° 15° (NNE) 2,154 ? -18.7°
Sets 02:24:35 0° 33° (NNE) 3,017 ? -18.4°
